This is the latest recevied weather packets stored in our database for station/object DL3NDS-WX. If no packets are shown the sender has not sent any weather packets the latest 1 day(s).
| Time | Temp. | Humidity | Pressure | Rain* | Wind** | Luminosity | Snow |
|---|---|---|---|---|---|---|---|
| 1777963273 | 14.44° C | 82% | 1010.8 hPa | 0 mm | 0.89 m/s, 323° | 172 W/m² | - |
| 1777963211 | 14.44° C | 82% | 1010.8 hPa | 0 mm | 0.89 m/s, 328° | 169 W/m² | - |
| 1777963157 | 14.44° C | 81% | 1010.8 hPa | 0 mm | 0.89 m/s, 326° | 171 W/m² | - |
| 1777963083 | 14.44° C | 81% | 1010.8 hPa | 0 mm | 1.34 m/s, 326° | 169 W/m² | - |
| 1777963022 | 14.44° C | 81% | 1010.9 hPa | 0 mm | 0.89 m/s, 325° | 163 W/m² | - |
| 1777962960 | 14.44° C | 81% | 1010.9 hPa | 0 mm | 0.89 m/s, 330° | 162 W/m² | - |
| 1777962899 | 13.89° C | 82% | 1010.8 hPa | 0 mm | 0.45 m/s, 331° | 160 W/m² | - |
| 1777962841 | 13.89° C | 82% | 1010.9 hPa | 0 mm | 0 m/s | 158 W/m² | - |
| 1777962777 | 13.89° C | 82% | 1010.9 hPa | 0 mm | 0.45 m/s, 332° | 156 W/m² | - |
| 1777962711 | 13.89° C | 82% | 1010.9 hPa | 0 mm | 0.45 m/s, 332° | 151 W/m² | - |
| 1777962654 | 13.89° C | 82% | 1010.9 hPa | 0 mm | 0 m/s | 151 W/m² | - |
| 1777962591 | 13.89° C | 81% | 1010.9 hPa | 0 mm | 0 m/s | 153 W/m² | - |
| 1777962526 | 13.89° C | 82% | 1010.9 hPa | 0 mm | 0.45 m/s, 2° | 148 W/m² | - |
| 1777962465 | 13.89° C | 82% | 1010.9 hPa | 0 mm | 0.89 m/s, 2° | 148 W/m² | - |
| 1777962403 | 13.89° C | 82% | 1010.9 hPa | 0 mm | 0.45 m/s, 326° | 149 W/m² | - |
| 1777962341 | 13.89° C | 82% | 1011 hPa | 0 mm | 0.45 m/s, 326° | 155 W/m² | - |
| 1777962287 | 13.89° C | 82% | 1011 hPa | 0 mm | 0.45 m/s, 334° | 160 W/m² | - |
| 1777962220 | 13.89° C | 82% | 1011 hPa | 0 mm | 0.45 m/s, 335° | 162 W/m² | - |
| 1777962160 | 13.89° C | 82% | 1011 hPa | 0 mm | 0.89 m/s, 54° | 163 W/m² | - |
| 1777962099 | 13.89° C | 82% | 1010.9 hPa | 0 mm | 0.89 m/s, 61° | 162 W/m² | - |
| 1777962027 | 13.89° C | 83% | 1011 hPa | 0 mm | 0.45 m/s, 62° | 160 W/m² | - |
| 1777961964 | 13.89° C | 83% | 1011 hPa | 0 mm | 0 m/s | 155 W/m² | - |
| 1777961905 | 13.89° C | 83% | 1011 hPa | 0 mm | 0.89 m/s, 324° | 148 W/m² | - |
| 1777961843 | 13.89° C | 82% | 1011 hPa | 0 mm | 1.34 m/s, 323° | 142 W/m² | - |
| 1777961781 | 13.89° C | 83% | 1011 hPa | 0 mm | 0.45 m/s, 324° | 132 W/m² | - |
* Rain latest hour (hover to see other rain measurements)
** Current wind speed in m/s (hover to see current wind gust speed)